Astra 1L

operational
NORAD ID: 31306 Int'l Des: 2007-016 Owner: SESSA Country: L
HEOCIRCULARGSO

About Astra 1L

Description loading...

Live Position

Loading 3D Globe...

Upcoming Passes

Altitude History

Altitude vs Time

uPlot chart will show altitude changes over time

Two-Line Element Set

1 31306U 07016A 26063.15210765 -.00000196 00000-0 00000+0 0 9997
2 31306 1.0502 82.4242 0003331 274.8639 194.9166 1.00271290 43931
Epoch: Mar 4, 2026 • Age: 11 hours

Current Status

Altitude 35779.1 km
Velocity 3.08 km/s
Sub-Earth Point -0.60°S, 24.48°W
Launch Date May 4, 2007
Age 18.8 years
Type other

Technical Details

Classification Payload
Mass 4505.00 kg
Dry Mass 2254.00 kg
Total Mass 4505.00 kg
Length 7.70 m
Diameter 3.60 m
Span 27.00 m
Shape Box + 2 Pan
Manufacturer LMCSS
Bus Type A2100AX
Phase Status In Orbit
Owner/State SESSA/L

Large Constellations

Loading constellations...